Voltar ao catálogo

IUS R/B(1)

AtivoHEO
NORAD 20356·ROCKET BODY·🇺🇸 United States

Lançado Nov 23, 1989 de Cape Canaveral Space Force Station

Loading…

Próximas Passagens (próximas 24 horas)

TLE

AtualizadoSource: Space-Track

Época: Sep 13, 2026, 03:22 UTC

1 20356U 89090C   26256.14068740  .00008816  00000-0  82763-3 0  9995
2 20356  27.4739 242.9736 6355362 258.5152  28.4660  3.55400936 89458

Acompanhe IUS R/B(1) em tempo real com AllMySat

Download on the App Store